DECAYED

STARLINK-5784, 56033 (Decayed)

Orbit data source: Space-Track

STARLINK-5784, 56033 was a payload satellite owned by SpaceX/Seattle (US) in LEO that was launched on Fri, 24 Mar 2023 UTC via an FALCON 9 launch vehicle from the Air Force Eastern Test Range (AFETR). Payload-class satellites include a variety of spacecraft equipped with specific instruments for various scientific and technological missions. These include communications satellites like Starlink; space stations such as the ISS; scientific satellites like the Hubble; Earth observation satellites from companies like Planet Labs, Umbra, and HawkEye 360; GPS; miniature CubeSats for education and research; and military/defense satellites.

Not visible in the next 10 days
Identifier
56033, 2023-042AZ
Orbit
Decayed
Country
Flag of USUS
Related business
Manufacturer
SpaceX/Seattle
Mission
Decayed Commercial Communications
Bus & Motor
STARLINK, Unknown motor
Mass
305 kg wet, ~290 kg dry
Launch date (UTC)
2023-03-24 (3 years ago)
Launch vehicle
FALCON 9
Launch site
Air Force Eastern Test Range (AFETR)
Object type
Payload
Rocket body
Debris
Shape & HBR
Box + 1 Pan, 10.1 m
Radar Cross Section
11.087 m², Large (>1 m²)

Expand to show TLE details & history
Last TLE update: 1 year ago

TLE from 1 year ago
0 STARLINK-5784
1 56033U 23042AZ  25001.96752333  .05370855  92261-5  83922-3 0  9999
2 56033  42.9867 200.1970 0008422 307.4215 203.0226 16.32822931 98786
Epoch: 2025-01-01T23:13Z
TLE epoch observation values (Epoch: 2025-01-01T23:13:14.015Z)
Latitude
19.74026°
Longitude
-92.47079°
Altitude
189.348 km
Speed
7.793 km/s
True Right ascension
23h 50m 45s
True Declination
19° 37' 18"
Sunlit
Object was in daylight at epoch
Visualization orbit readout
Latitude
Unknown
Longitude
Unknown
Altitude
Unknown
Speed
Unknown
Apparent Right ascension
Unknown
Apparent Declination
Unknown
Sunlit
N/A
Visualization observer readout
Local Sidereal Time
21:25:32
Azimuth
Unknown
Elevation
Unknown
Doppler factor
Unknown
Orbital elements
Apogee altitude
192.529 km
Perigee altitude
181.471 km
Semi-major axis
6,565.137 km
Eccentricity
0.00084
Inclination
42.9867°
RAAN
200.197°
Arg. of periapsis
307.4215°
True anomaly
202.98489°
Mean anomaly
203.0226°
Eccentric anomaly
203.00374°
Mean motion
4.08016 °/min
Orbital period
88.23 mins
BSTAR
0.00083922
Loading maneuver chart data...
Computing Atmospheric mass density...
Loading historical data...
Loading historical data...
Loading historical data...
Loading historical data...
Loading historical data...
Loading historical data...
Loading historical data...

Documentation

Showing up to 5 results
|